User: anonymous   Login
Location: Petruro
(41.0333°N, 14.7833°E)
Time: 18:30:34
(UTC+00:00)
Language:

ATLAS 5 CENTAUR R/B - Orbit

View from above orbital plane
View from above orbital plane
View from above satellite
View from above satellite

Ground track
Ground track

The orbit data is extracted from the following two-line orbital elements,

1 36869U 10039B   21267.36226195  .00006678  00000-0  49906-3 0  9995
2 36869  20.1823  47.3991 4815235 271.7639  35.9269  5.98739678191867
Epoch (UTC): 24 September 2021 08:41:39
Eccentricity: 0.4815235
inclination: 20.1823°
perigee height: 264 km
apogee height: 12601 km
right ascension of ascending node: 47.3991°
argument of perigee: 271.7639°
revolutions per day: 5.98739678
mean anomaly at epoch: 35.9269°
orbit number at epoch: 19186

The dashed part of the orbit path shows where the satellite is in the earth's shadow,  

DLR